�������l�o���
Date,Time,MP-1(��Sv/h),MP-2(��Sv/h),MP-3(��Sv/h),MP-4(��Sv/h),MP-5(��Sv/h),MP-6(��Sv/h),MP-7(��Sv/h),MP-8(��Sv/h),����,����(m/s),���J
2020/03/25,00:00,0.709,1.029,0.676,1.258,0.897,0.402,0.704,0.667,�k��,3.0,��
2020/03/25,00:10,0.707,1.029,0.677,1.257,0.898,0.401,0.703,0.669,���k��,1.7,��
2020/03/25,00:20,0.708,1.032,0.677,1.257,0.896,0.400,0.702,0.667,�k��,0.8,��
2020/03/25,00:30,0.705,1.032,0.677,1.255,0.897,0.399,0.702,0.668,�쐼,0.6,��
2020/03/25,00:40,0.707,1.029,0.677,1.256,0.899,0.399,0.704,0.669,�쓌,1.2,��
2020/03/25,00:50,0.707,1.028,0.677,1.256,0.896,0.400,0.703,0.668,��쐼,1.5,��
2020/03/25,01:00,0.706,1.029,0.677,1.256,0.896,0.399,0.705,0.668,��,2.2,��
2020/03/25,01:10,0.708,1.030,0.676,1.256,0.895,0.400,0.705,0.668,��쐼,2.3,��
2020/03/25,01:20,0.706,1.026,0.675,1.254,0.897,0.400,0.703,0.667,�쐼,1.2,��
2020/03/25,01:30,0.706,1.029,0.676,1.257,0.896,0.401,0.704,0.668,��,2.0,��
2020/03/25,01:40,0.709,1.029,0.677,1.256,0.898,0.400,0.705,0.667,���k��,2.6,��
2020/03/25,01:50,0.707,1.028,0.679,1.255,0.897,0.401,0.704,0.667,���k��,3.6,��
2020/03/25,02:00,0.707,1.028,0.675,1.257,0.898,0.400,0.704,0.668,���k��,5.8,��
2020/03/25,02:10,0.707,1.028,0.677,1.256,0.898,0.400,0.704,0.668,�k��,6.2,��
2020/03/25,02:20,0.707,1.029,0.675,1.256,0.898,0.402,0.703,0.668,�k��,4.6,��
2020/03/25,02:30,0.707,1.028,0.678,1.255,0.898,0.400,0.703,0.666,�k��,7.5,��
2020/03/25,02:40,0.706,1.031,0.677,1.255,0.896,0.401,0.702,0.668,�k��,7.8,��
2020/03/25,02:50,0.708,1.029,0.679,1.254,0.898,0.400,0.705,0.668,�k��,6.4,��
2020/03/25,03:00,0.709,1.028,0.676,1.256,0.897,0.400,0.703,0.668,��,5.0,��
2020/03/25,03:10,0.706,1.029,0.678,1.256,0.897,0.400,0.704,0.667,���k��,4.0,��
2020/03/25,03:20,0.707,1.029,0.680,1.255,0.896,0.401,0.704,0.667,���k��,4.9,��
2020/03/25,03:30,0.708,1.026,0.677,1.255,0.899,0.402,0.703,0.667,���k��,4.2,��
2020/03/25,03:40,0.706,1.029,0.677,1.255,0.896,0.399,0.703,0.667,���k��,5.1,��
2020/03/25,03:50,0.706,1.027,0.676,1.257,0.896,0.401,0.705,0.667,���k��,4.5,��
2020/03/25,04:00,0.706,1.026,0.677,1.255,0.897,0.400,0.705,0.668,���k��,4.1,��
2020/03/25,04:10,0.707,1.029,0.677,1.256,0.897,0.401,0.702,0.668,���k��,4.2,��
2020/03/25,04:20,0.707,1.029,0.678,1.253,0.896,0.399,0.703,0.667,��,3.9,��
2020/03/25,04:30,0.708,1.026,0.676,1.255,0.896,0.399,0.702,0.668,���k��,4.7,��
2020/03/25,04:40,0.705,1.029,0.676,1.256,0.896,0.401,0.705,0.668,���k��,4.4,��
2020/03/25,04:50,0.705,1.027,0.677,1.255,0.896,0.400,0.703,0.668,���k��,3.8,��
2020/03/25,05:00,0.705,1.026,0.675,1.253,0.898,0.400,0.702,0.667,��,3.6,��
2020/03/25,05:10,0.704,1.028,0.676,1.256,0.897,0.399,0.703,0.668,�k��,4.3,��
2020/03/25,05:20,0.706,1.026,0.676,1.256,0.895,0.400,0.704,0.668,���k��,4.1,��
2020/03/25,05:30,0.704,1.027,0.675,1.255,0.898,0.400,0.703,0.667,���k��,3.3,��
2020/03/25,05:40,0.706,1.027,0.676,1.257,0.897,0.400,0.703,0.668,���k��,3.7,��
2020/03/25,05:50,0.704,1.027,0.677,1.255,0.898,0.401,0.702,0.668,�k��,5.2,��
2020/03/25,06:00,0.706,1.027,0.676,1.254,0.894,0.399,0.703,0.665,�k��,4.9,��
2020/03/25,06:10,0.706,1.027,0.676,1.256,0.897,0.402,0.702,0.668,�k��,4.3,��
2020/03/25,06:20,0.706,1.027,0.675,1.256,0.898,0.400,0.703,0.667,�k��,2.3,��
2020/03/25,06:30,0.705,1.027,0.676,1.255,0.895,0.399,0.702,0.667,�k�k��,2.8,��
2020/03/25,06:40,0.707,1.028,0.676,1.256,0.896,0.401,0.704,0.665,�k�k��,3.1,��
2020/03/25,06:50,0.706,1.026,0.676,1.255,0.897,0.399,0.703,0.668,�k��,1.9,��
2020/03/25,07:00,0.706,1.027,0.678,1.256,0.894,0.401,0.705,0.668,�k�k��,1.2,��
2020/03/25,07:10,0.707,1.030,0.677,1.255,0.897,0.402,0.704,0.668,�k,2.0,��
2020/03/25,07:20,0.706,1.024,0.676,1.255,0.897,0.399,0.704,0.668,�k�k��,2.5,��
2020/03/25,07:30,0.707,1.027,0.677,1.256,0.895,0.401,0.704,0.669,�k�k��,2.6,��
2020/03/25,07:40,0.708,1.028,0.674,1.255,0.897,0.402,0.705,0.668,�k�k��,3.4,��
2020/03/25,07:50,0.707,1.026,0.677,1.256,0.898,0.400,0.705,0.668,�k,2.8,��
2020/03/25,08:00,0.709,1.025,0.675,1.257,0.897,0.401,0.707,0.668,�k,3.7,��
2020/03/25,08:10,0.709,1.027,0.675,1.256,0.895,0.402,0.704,0.670,�k,2.6,��
2020/03/25,08:20,0.708,1.027,0.674,1.256,0.898,0.400,0.705,0.667,�k�k��,6.1,��
2020/03/25,08:30,0.707,1.025,0.676,1.257,0.895,0.399,0.706,0.670,�k��,8.7,��
2020/03/25,08:40,0.710,1.025,0.675,1.256,0.897,0.402,0.705,0.669,�k�k��,8.3,��
2020/03/25,08:50,0.708,1.022,0.675,1.257,0.898,0.401,0.701,0.668,�k��,5.3,��
2020/03/25,09:00,0.708,1.022,0.677,1.257,0.896,0.401,0.704,0.669,�k��,7.6,��
2020/03/25,09:10,0.709,1.020,0.677,1.255,0.899,0.400,0.704,0.669,�k��,7.4,��
2020/03/25,09:20,0.709,1.021,0.677,1.259,0.896,0.400,0.704,0.667,���k��,7.1,��
2020/03/25,09:30,0.708,1.019,0.677,1.255,0.898,0.401,0.704,0.667,���k��,7.9,��
2020/03/25,09:40,0.708,1.022,0.678,1.256,0.898,0.401,0.706,0.668,�k��,5.6,��
2020/03/25,09:50,0.708,1.019,0.679,1.257,0.898,0.401,0.705,0.669,�k��,5.7,��
2020/03/25,10:00,0.708,1.023,0.681,1.258,0.898,0.400,0.704,0.667,�k��,8.1,��
2020/03/25,10:10,0.710,1.022,0.678,1.257,0.899,0.402,0.705,0.667,���k��,5.9,��
2020/03/25,10:20,0.707,1.021,0.681,1.259,0.898,0.400,0.704,0.666,�k��,7.4,��
2020/03/25,10:30,0.710,1.019,0.679,1.258,0.900,0.400,0.704,0.667,�k�k��,5.5,��
2020/03/25,10:40,0.709,1.020,0.680,1.257,0.897,0.400,0.704,0.667,�k�k��,5.3,��
2020/03/25,10:50,0.708,1.019,0.677,1.256,0.899,0.400,0.704,0.666,�k�k��,6.7,��
2020/03/25,11:00,0.709,1.020,0.680,1.259,0.896,0.401,0.705,0.666,�k�k��,5.9,��
2020/03/25,11:10,0.708,1.019,0.679,1.258,0.897,0.400,0.703,0.665,�k�k��,5.5,��
2020/03/25,11:20,0.708,1.023,0.680,1.258,0.899,0.400,0.703,0.667,�k�k��,6.0,��
2020/03/25,11:30,0.709,1.020,0.679,1.257,0.897,0.401,0.702,0.665,�k��,5.6,��
2020/03/25,11:40,0.708,1.024,0.676,1.258,0.898,0.401,0.703,0.667,���k��,4.9,��
2020/03/25,11:50,0.710,1.024,0.677,1.260,0.897,0.402,0.703,0.665,���k��,5.4,��
2020/03/25,12:00,0.710,1.024,0.680,1.258,0.898,0.400,0.703,0.667,���k��,6.3,��
2020/03/25,12:10,0.709,1.027,0.680,1.258,0.897,0.401,0.701,0.669,���k��,6.3,��
2020/03/25,12:20,0.707,1.029,0.681,1.258,0.900,0.402,0.704,0.669,�k��,5.8,��
2020/03/25,12:30,0.710,1.028,0.679,1.257,0.900,0.402,0.703,0.670,�k��,5.2,��
2020/03/25,12:40,0.710,1.028,0.678,1.260,0.898,0.401,0.703,0.668,�k��,5.2,��
2020/03/25,12:50,0.710,1.027,0.677,1.259,0.899,0.400,0.704,0.668,��,4.6,��
2020/03/25,13:00,0.712,1.026,0.676,1.261,0.897,0.400,0.706,0.667,��,4.3,��
2020/03/25,13:10,0.712,1.026,0.679,1.258,0.900,0.402,0.703,0.665,���k��,4.1,��
2020/03/25,13:20,0.712,1.026,0.676,1.261,0.900,0.402,0.704,0.668,���쓌,4.0,��
2020/03/25,13:30,0.709,1.023,0.678,1.262,0.897,0.401,0.704,0.668,�쓌,3.4,��
2020/03/25,13:40,0.711,1.024,0.677,1.259,0.900,0.401,0.705,0.667,���쓌,3.4,��
2020/03/25,13:50,0.711,1.025,0.679,1.259,0.899,0.401,0.705,0.668,��쓌,4.6,��
2020/03/25,14:00,0.709,1.026,0.679,1.260,0.901,0.402,0.704,0.666,�쓌,3.9,��
2020/03/25,14:10,0.711,1.025,0.679,1.261,0.899,0.402,0.706,0.667,��쓌,4.5,��
2020/03/25,14:20,0.710,1.025,0.678,1.263,0.897,0.401,0.704,0.667,�쓌,3.6,��
2020/03/25,14:30,0.709,1.022,0.677,1.259,0.899,0.402,0.703,0.667,��,4.3,��
2020/03/25,14:40,0.711,1.025,0.679,1.256,0.900,0.402,0.705,0.667,�쓌,5.7,��
2020/03/25,14:50,0.710,1.022,0.680,1.260,0.903,0.401,0.704,0.666,��쓌,4.7,��
2020/03/25,15:00,0.711,1.022,0.679,1.258,0.901,0.401,0.704,0.668,��쓌,4.9,��
2020/03/25,15:10,0.710,1.032,0.679,1.261,0.901,0.402,0.704,0.666,��쓌,4.5,��
2020/03/25,15:20,0.712,1.029,0.680,1.259,0.901,0.401,0.703,0.666,��쓌,5.9,��
2020/03/25,15:30,0.708,1.030,0.677,1.259,0.898,0.402,0.705,0.668,��쓌,5.8,��
2020/03/25,15:40,0.710,1.029,0.678,1.259,0.900,0.403,0.705,0.666,��쓌,6.7,��
2020/03/25,15:50,0.711,1.032,0.677,1.260,0.901,0.402,0.704,0.667,��쓌,5.2,��
2020/03/25,16:00,0.708,1.034,0.672,1.258,0.900,0.404,0.705,0.665,��쓌,5.6,��
2020/03/25,16:10,0.709,1.036,0.675,1.258,0.900,0.402,0.704,0.666,��쓌,5.9,��
2020/03/25,16:20,0.710,1.034,0.674,1.258,0.900,0.405,0.704,0.666,��쓌,5.8,��
2020/03/25,16:30,0.710,1.032,0.678,1.258,0.900,0.403,0.704,0.668,��쓌,6.5,��
2020/03/25,16:40,0.709,1.033,0.679,1.261,0.901,0.404,0.703,0.669,��쓌,6.1,��
2020/03/25,16:50,0.710,1.035,0.679,1.259,0.899,0.405,0.704,0.670,��쓌,5.9,��
2020/03/25,17:00,0.708,1.035,0.678,1.259,0.900,0.403,0.704,0.670,��쓌,5.9,��
2020/03/25,17:10,0.709,1.036,0.679,1.259,0.900,0.403,0.705,0.670,��,6.5,��
2020/03/25,17:20,0.710,1.033,0.680,1.259,0.901,0.403,0.707,0.669,��,5.7,��
2020/03/25,17:30,0.711,1.034,0.679,1.259,0.902,0.403,0.706,0.668,��,6.3,��
2020/03/25,17:40,0.711,1.033,0.678,1.260,0.903,0.405,0.704,0.670,��쐼,5.6,��
2020/03/25,17:50,0.711,1.033,0.679,1.260,0.902,0.403,0.706,0.670,��쐼,4.9,��
2020/03/25,18:00,0.710,1.034,0.679,1.257,0.902,0.403,0.707,0.668,��쐼,4.0,��
2020/03/25,18:10,0.710,1.035,0.678,1.259,0.904,0.404,0.706,0.670,��,3.2,��
2020/03/25,18:20,0.711,1.033,0.679,1.259,0.901,0.403,0.706,0.669,�쐼,2.6,��
2020/03/25,18:30,0.710,1.032,0.679,1.258,0.902,0.404,0.706,0.669,��,4.6,��
2020/03/25,18:40,0.710,1.034,0.680,1.257,0.904,0.404,0.707,0.670,��,4.9,��
2020/03/25,18:50,0.709,1.036,0.679,1.259,0.901,0.403,0.706,0.669,��,4.0,��
2020/03/25,19:00,0.710,1.032,0.679,1.258,0.902,0.403,0.706,0.670,���k��,3.9,��
2020/03/25,19:10,0.710,1.031,0.679,1.260,0.902,0.403,0.707,0.669,���k��,3.8,��
2020/03/25,19:20,0.708,1.035,0.680,1.258,0.903,0.402,0.706,0.669,��,3.0,��
2020/03/25,19:30,0.712,1.032,0.680,1.257,0.900,0.403,0.705,0.669,���k��,3.6,��
2020/03/25,19:40,0.710,1.033,0.680,1.259,0.901,0.403,0.708,0.667,���k��,3.4,��
2020/03/25,19:50,0.713,1.035,0.679,1.259,0.899,0.403,0.706,0.667,���k��,4.4,��
2020/03/25,20:00,0.710,1.034,0.679,1.259,0.902,0.403,0.707,0.669,���k��,4.0,��
2020/03/25,20:10,0.711,1.033,0.678,1.260,0.900,0.402,0.706,0.669,���k��,3.5,��
2020/03/25,20:20,0.708,1.033,0.678,1.261,0.900,0.402,0.706,0.669,���k��,3.9,��
2020/03/25,20:30,0.709,1.033,0.678,1.259,0.900,0.403,0.707,0.668,���k��,4.6,��
2020/03/25,20:40,0.711,1.033,0.677,1.259,0.900,0.402,0.707,0.668,�k��,6.2,��
2020/03/25,20:50,0.710,1.032,0.679,1.258,0.899,0.403,0.706,0.669,���k��,6.2,��
2020/03/25,21:00,0.710,1.032,0.680,1.257,0.901,0.403,0.706,0.668,���k��,7.0,��
2020/03/25,21:10,0.709,1.033,0.677,1.260,0.901,0.403,0.706,0.668,�k��,5.4,��
2020/03/25,21:20,0.709,1.033,0.677,1.259,0.899,0.403,0.706,0.668,�k�k��,3.4,��
2020/03/25,21:30,0.711,1.030,0.679,1.256,0.899,0.402,0.708,0.669,�k��,4.4,��
2020/03/25,21:40,0.709,1.034,0.677,1.258,0.902,0.402,0.705,0.668,�k��,5.3,��
2020/03/25,21:50,0.711,1.032,0.677,1.257,0.902,0.403,0.705,0.669,�k��,6.0,��
2020/03/25,22:00,0.709,1.032,0.678,1.258,0.900,0.402,0.705,0.669,�k��,3.6,��
2020/03/25,22:10,0.709,1.031,0.681,1.261,0.901,0.401,0.705,0.669,���k��,6.0,��
2020/03/25,22:20,0.709,1.032,0.679,1.259,0.901,0.403,0.706,0.669,�k��,4.2,��
2020/03/25,22:30,0.710,1.032,0.677,1.261,0.898,0.402,0.706,0.669,���k��,4.0,��
2020/03/25,22:40,0.711,1.032,0.678,1.259,0.901,0.403,0.706,0.667,�k��,3.4,��
2020/03/25,22:50,0.709,1.032,0.677,1.260,0.900,0.401,0.705,0.667,�k��,2.8,��
2020/03/25,23:00,0.708,1.031,0.678,1.259,0.900,0.403,0.703,0.670,�k��,5.0,��
2020/03/25,23:10,0.709,1.030,0.676,1.260,0.900,0.402,0.704,0.668,���k��,5.9,��
2020/03/25,23:20,0.710,1.031,0.678,1.260,0.898,0.400,0.707,0.669,�k��,5.8,��
2020/03/25,23:30,0.709,1.030,0.678,1.258,0.899,0.402,0.705,0.669,�k��,5.4,��
2020/03/25,23:40,0.709,1.031,0.679,1.260,0.902,0.401,0.705,0.669,�k��,3.9,��
2020/03/25,23:50,0.708,1.031,0.680,1.259,0.899,0.400,0.704,0.668,�k��,4.7,��
